Flag for Germany Weather past 2 weeks in Freising, Bavaria, Germany

Now
59 °F

Cool.


Feels Like: 59 °F
Forecast: 56 / 74 °F
Wind: 1 mph from North

Location: Munich / Franz Josef Strauss Airport

Current Time: Jul 23, 2014 at 9:57:15 AM

Latest Report: Jul 23, 2014 at 7:50 AM


Visibility: 2 mi

Pressure: 30.01 "Hg

Humidity: 94%

Dew point: 57 °F

Location of FreisingLocation

Historic Weather in Freising — Graph

°F

Freising temperature yesterday

Maximum temperature yesterday: 70 °F (at 3:20 PM)
Minimum temperature yesterday: 61 °F (at 12:20 AM)
Average temperature yesterday: 64 °F

Past Weeks' High & Low Weather Summary

 TemperatureHumidityPressure
High88 °F (Jul 19, 3:20 PM)100% (Jul 8, 3:20 PM)30.21 "Hg (Jul 8, 3:20 PM)
Low52 °F (Jul 10, 12:50 AM)29% (Jul 19, 6:20 PM)29.77 "Hg (Jul 8, 7:20 AM)
Average65 °F77%29.97 "Hg
* Reported Jul 8 7:20 AM — Jul 23 7:20 AM, Freising, Weather by CustomWeather, © 2014

Note: Actual official high and low records may vary slightly from our data, if they occured in-between our weather recording intervals... More about our weather records

Advertising

Freising weather history for previous 24 hours

 ConditionsComfort  
Time TempWeatherWind HumidityBarometerVisibility
7:20 AM
Jul 23
57 °FScattered clouds.1 mph100%30.01 "Hg1 mi
6:50 AM57 °FFog.1 mph94%30.01 "Hg0 mi
6:20 AM57 °FFog.1 mph100%30.01 "Hg0 mi
5:50 AM57 °FSnow. Overcast.1 mph100%30.01 "Hg1 mi
5:20 AM59 °FSnow. Overcast.1 mph94%30.01 "Hg1 mi
4:50 AM59 °FCool.2 mph100%30.01 "Hg1 mi
4:20 AM59 °FFog.1 mph100%29.98 "Hg0 mi
3:50 AM59 °FFog.1 mph100%29.98 "Hg0 mi
3:20 AM61 °FFog.2 mph100%29.98 "Hg0 mi
2:50 AM61 °FFog.3 mph100%29.98 "Hg0 mi
2:20 AM61 °FFog.2 mph94%30.01 "Hg0 mi
1:50 AM61 °FFog.2 mph94%30.01 "Hg1 mi
6:50 PM
Jul 22
70 °FLight rain. Broken clouds.2 mph88%29.95 "Hg6 mi
6:20 PM70 °FPartly sunny.2 mph88%29.95 "HgN/A
5:50 PM68 °FBroken clouds.3 mph94%29.95 "HgN/A
5:20 PM66 °FSprinkles. Broken clouds.2 mph94%29.95 "HgN/A
4:50 PM68 °FMild.7 mph88%29.92 "Hg2 mi
4:20 PM68 °FRain showers. Broken clouds.2 mph94%29.92 "Hg3 mi
3:50 PM70 °FSprinkles. Partly sunny.6 mph88%29.92 "Hg6 mi
3:20 PM70 °FBroken clouds.7 mph88%29.92 "Hg6 mi
2:50 PM68 °FDrizzle. Broken clouds.3 mph94%29.92 "Hg5 mi
2:20 PM68 °FDrizzle. Broken clouds.3 mph88%29.92 "Hg4 mi
1:50 PM66 °FDrizzle. Broken clouds.2 mph94%29.92 "Hg4 mi
1:20 PM66 °FDrizzle. Broken clouds.2 mph94%29.92 "Hg4 mi
12:50 PM66 °FDrizzle. Broken clouds.1 mph88%29.92 "Hg4 mi
12:20 PM66 °FDrizzle. Partly sunny.1 mph88%29.92 "Hg2 mi
11:50 AM64 °FBroken clouds.2 mph94%29.92 "HgN/A
11:20 AM64 °FPartly sunny.3 mph94%29.92 "HgN/A
10:50 AM64 °FPartly sunny.5 mph94%29.89 "HgN/A
10:20 AM64 °FPartly sunny.2 mph94%29.89 "Hg6 mi
9:50 AM64 °FDrizzle. More clouds than sun.1 mph94%29.89 "Hg5 mi
9:20 AM63 °FDrizzle. More clouds than sun.1 mph100%29.89 "Hg4 mi
Weather by CustomWeather, © 2014

See weather overviewHow to use our weather pages